千帆星座-18 (QIANFAN-18)

导读

QIANFAN-18 是中国自主研发的北斗卫星导航系统中的重要成员,主要用于提供高精度定位、导航和授时服务。该卫星采用先进技术和稳定平台,具备更强的抗干扰能力和更广的覆盖范围,提升了北斗系统的整体性能。QIANFAN-18 的成功发射和运行,进一步增强了中国在全球卫星导航领域的竞争力,为交通运输、气象预报、应急救援等多个行业提供了可靠支持。

基本信息
目录编号:
60396
目录名称:
QIANFAN-18
国际标识:
2024-140T
轨道中心:
EARTH
卫星名称:
千帆星座-18 (QIANFAN-18)
卫星全名:
千帆星座-18 (QIANFAN-18)
卫星状态:
在轨 (已飞行766 天)
发射日期:
2024-08-06 UTC
国别 :
中国 (CN)
星等 :
--
轨道信息
数据来源 国际轨道数据 AOE轨道数据
星历时间 2026-09-11T00:08:32+0800
9小时前
查看轨道信息
2026-09-10T23:00:00+0800
10小时前
查看轨道信息
半长轴 7446.643km 7446.642km
偏心率 0.0016187 0.0016065
轨道倾角 88.967° 88.967°
近地点辐角 119.300° 119.348°
升交点赤经 270.754° 270.759°
平近点角 240.977° 9.590°
近地点 1056.452km 1056.541km
远地点 1080.56km 1080.469km
周期 106.586分钟 106.586分钟
每日圈数 13.510208 13.510209
详细信息
运营商:
上海垣信卫星科技有限公司
运营商所在国:
中国
使用方式:
暂无
卫星简介
千帆星座,也被称为“G60星链”计划,是中国版“星链”的重要组成部分,旨在打造一个由1.4万多颗低轨宽频多媒体卫星构成的庞大星座。千帆星座计划由上海垣信卫星科技有限公司负责实施,于2023年启动建设。该项目是我国第二个低轨卫星大星座,旨在通过构建庞大的卫星网络,为全球用户提供高质量的通信和宽带互联网服务。
2D轨道图
3D轨道图
轨道高度分析图
轨道倾角分析图
轨道综合分析图
查看轨道综合分析图
与全量物体交会距离演化趋势
与全量物体交会风险概率演化趋势